C/2020 M3 ( ATLAS )

Japanese version
Home page
Updated on July 22, 2020

---------------------------------------------------------------------

* Profile

Discovery Date June 27, 2020
Magnitude 18.8 mag
Discoverer Asteroid Terrestrial-Impact Last Alert System (ATLAS) search program

* Orbital Elements

Epoch 2020 Nov. 7.0 TT = JDT 2459160.5
T 2020 Oct. 25.60438 TT                                 Rudenko
q   1.2686902            (2000.0)            P               Q
n   0.00693912     Peri.  328.40085     +0.72860254     -0.57164114
a  27.2228334      Node    71.27347     +0.68155656     +0.55042273
e   0.9533961      Incl.   23.47840     +0.06796316     +0.60849094
P 142
From 28 observations 2020 June 27-July 13, mean residual 0".5.

* Finding Charts

* Magnitudes Graph

        m1 = 14.5 + 5 log d + 10.0 log r

---------------------------------------------------------------------

The orbital elements are published on M.P.E.C. 2020-O07.
The charts are made with StellaNavigator Ver.10 (AstroArts).
The magnitudes graphs are made with Comet for Windows.

---------------------------------------------------------------------

Copyright(C) Seiichi Yoshida (comet@aerith.net). All rights reserved.